QFA563 YSSY-YMML

Flight info

Callsign QFA563
Flight time N/A
Altitude 38000
Route MARUB7/34R WOL H65 LEECE Q29 ML
Aircraft A388/J-SADE2E3FGHIJ3J4J5M1RWXY/LB1D1

Departure

Time 2026-04-26 04:49
Airport Sydney Kingsford Smith International Airport (YSSY)

Arrival

Time N/A
Airport Melbourne Airport (YMML)
Time Latitude Longitude Altitude Speed Heading
2026-04-26 03:48 -33.93981 151.16687 35 ft 0 kts 304°
2026-04-26 04:29 -33.93984 151.16691 35 ft 2 kts 303°
2026-04-26 04:29 -33.93993 151.16708 35 ft 2 kts 303°
2026-04-26 04:29 -33.94002 151.16725 34 ft 2 kts 303°
2026-04-26 04:30 -33.94011 151.16742 33 ft 2 kts 303°
2026-04-26 04:30 -33.94022 151.16757 35 ft 2 kts 321°
2026-04-26 04:30 -33.94037 151.16764 34 ft 2 kts 347°
2026-04-26 04:30 -33.94054 151.16764 33 ft 2 kts
2026-04-26 04:31 -33.94068 151.16755 31 ft 2 kts 41°
2026-04-26 04:31 -33.94079 151.16740 32 ft 2 kts 56°
2026-04-26 04:31 -33.94087 151.16722 32 ft 2 kts 62°
2026-04-26 04:31 -33.94093 151.16704 32 ft 2 kts 68°
2026-04-26 04:32 -33.94097 151.16694 31 ft 1 kts 71°
2026-04-26 04:32 -33.94097 151.16693 31 ft 0 kts 71°
2026-04-26 04:35 -33.94095 151.16700 32 ft 5 kts 72°
2026-04-26 04:35 -33.94076 151.16777 33 ft 13 kts 74°
2026-04-26 04:35 -33.94070 151.16804 33 ft 12 kts 75°
2026-04-26 04:36 -33.94050 151.16893 35 ft 10 kts 75°
2026-04-26 04:36 -33.94033 151.16967 35 ft 8 kts 75°
2026-04-26 04:36 -33.94018 151.17029 35 ft 7 kts 73°
2026-04-26 04:36 -33.94004 151.17084 35 ft 7 kts 73°
2026-04-26 04:37 -33.93992 151.17137 35 ft 6 kts 73°
2026-04-26 04:37 -33.93982 151.17185 34 ft 5 kts 90°
2026-04-26 04:37 -33.93991 151.17220 34 ft 5 kts 139°
2026-04-26 04:37 -33.94066 151.17249 34 ft 16 kts 168°
2026-04-26 04:38 -33.94173 151.17276 33 ft 15 kts 168°
2026-04-26 04:38 -33.94268 151.17302 35 ft 13 kts 167°
2026-04-26 04:38 -33.94354 151.17324 34 ft 12 kts 168°
2026-04-26 04:38 -33.94430 151.17344 35 ft 11 kts 168°
2026-04-26 04:39 -33.94502 151.17362 35 ft 10 kts 168°
2026-04-26 04:39 -33.94568 151.17380 35 ft 9 kts 165°
2026-04-26 04:39 -33.94628 151.17395 35 ft 8 kts 168°
2026-04-26 04:39 -33.94684 151.17409 35 ft 8 kts 168°
2026-04-26 04:40 -33.94738 151.17423 35 ft 8 kts 167°
2026-04-26 04:40 -33.94806 151.17441 35 ft 13 kts 167°
2026-04-26 04:40 -33.94916 151.17470 34 ft 19 kts 167°
2026-04-26 04:40 -33.95056 151.17506 35 ft 20 kts 168°
2026-04-26 04:41 -33.95188 151.17540 33 ft 19 kts 168°
2026-04-26 04:41 -33.95311 151.17572 34 ft 17 kts 168°
2026-04-26 04:41 -33.95422 151.17601 35 ft 16 kts 167°
2026-04-26 04:41 -33.95526 151.17629 35 ft 15 kts 168°
2026-04-26 04:42 -33.95592 151.17646 35 ft 14 kts 167°
2026-04-26 04:42 -33.95681 151.17670 35 ft 13 kts 167°
2026-04-26 04:42 -33.95793 151.17699 35 ft 12 kts 167°
2026-04-26 04:42 -33.95845 151.17713 35 ft 11 kts 167°
2026-04-26 04:43 -33.95921 151.17732 35 ft 11 kts 169°
2026-04-26 04:43 -33.95991 151.17748 35 ft 10 kts 168°
2026-04-26 04:43 -33.96056 151.17765 35 ft 9 kts 167°
2026-04-26 04:43 -33.96115 151.17780 35 ft 9 kts 168°
2026-04-26 04:44 -33.96172 151.17794 35 ft 8 kts 168°
2026-04-26 04:44 -33.96227 151.17808 35 ft 8 kts 168°
2026-04-26 04:44 -33.96280 151.17821 35 ft 7 kts 167°
2026-04-26 04:44 -33.96328 151.17834 35 ft 7 kts 167°
2026-04-26 04:45 -33.96373 151.17847 35 ft 6 kts 164°
2026-04-26 04:45 -33.96409 151.17866 35 ft 5 kts 142°
2026-04-26 04:45 -33.96429 151.17893 35 ft 4 kts 120°
2026-04-26 04:45 -33.96434 151.17912 35 ft 2 kts 96°
2026-04-26 04:46 -33.96433 151.17951 35 ft 12 kts 82°
2026-04-26 04:46 -33.96420 151.18021 35 ft 5 kts 61°
2026-04-26 04:46 -33.96404 151.18044 35 ft 2 kts 26°
2026-04-26 04:46 -33.96396 151.18047 35 ft 1 kts 12°
2026-04-26 04:47 -33.96385 151.18049 35 ft 0 kts
2026-04-26 04:47 -33.96368 151.18048 35 ft 4 kts 352°
2026-04-26 04:47 -33.96355 151.18045 35 ft 0 kts 349°
2026-04-26 04:48 -33.96119 151.17985 32 ft 76 kts 348°
2026-04-26 04:49 -33.95378 151.17795 34 ft 137 kts 348°
2026-04-26 04:49 -33.94302 151.17509 168 ft 171 kts 342°
2026-04-26 04:49 -33.93266 151.16783 934 ft 182 kts 309°
2026-04-26 04:49 -33.92475 151.15359 1413 ft 225 kts 301°
2026-04-26 04:50 -33.91724 151.13663 1812 ft 230 kts 300°
2026-04-26 04:50 -33.90984 151.12052 2158 ft 213 kts 302°
2026-04-26 04:50 -33.90188 151.10448 2581 ft 233 kts 303°
2026-04-26 04:50 -33.89303 151.08753 2995 ft 250 kts 304°
2026-04-26 04:51 -33.88321 151.06910 3861 ft 264 kts 304°
2026-04-26 04:51 -33.87333 151.05073 5288 ft 263 kts 303°
2026-04-26 04:51 -33.86319 151.03190 6432 ft 272 kts 303°
2026-04-26 04:51 -33.85281 151.01257 7623 ft 278 kts 303°
2026-04-26 04:52 -33.84443 150.99128 8791 ft 288 kts 281°
2026-04-26 04:52 -33.84289 150.96714 10135 ft 294 kts 269°
2026-04-26 04:52 -33.84344 150.94209 11097 ft 313 kts 267°
2026-04-26 04:52 -33.84390 150.91507 11986 ft 339 kts 269°
2026-04-26 04:53 -33.84360 150.88582 13140 ft 354 kts 271°
2026-04-26 04:53 -33.84273 150.85598 14561 ft 361 kts 271°
2026-04-26 04:53 -33.84154 150.82534 15795 ft 370 kts 272°
2026-04-26 04:53 -33.84021 150.79413 17059 ft 378 kts 272°
2026-04-26 04:54 -33.84018 150.76223 18290 ft 386 kts 262°
2026-04-26 04:54 -33.84744 150.73108 19427 ft 389 kts 244°
2026-04-26 04:54 -33.86205 150.70358 20574 ft 393 kts 227°
2026-04-26 04:54 -33.88250 150.68160 21702 ft 397 kts 212°
2026-04-26 04:55 -33.90724 150.66671 22816 ft 400 kts 197°
2026-04-26 04:55 -33.93469 150.66027 23925 ft 403 kts 181°
2026-04-26 04:55 -33.96266 150.66177 24875 ft 406 kts 172°
2026-04-26 04:55 -33.99080 150.66717 25822 ft 411 kts 168°
2026-04-26 04:56 -34.01862 150.67368 26721 ft 416 kts 168°
2026-04-26 04:56 -34.04766 150.68056 27645 ft 421 kts 168°
2026-04-26 04:56 -34.07660 150.68718 28116 ft 425 kts 169°
2026-04-26 04:56 -34.10579 150.69363 28242 ft 426 kts 169°
2026-04-26 04:57 -34.16410 150.70617 28235 ft 426 kts 169°
2026-04-26 04:57 -34.22224 150.71862 28231 ft 426 kts 169°
2026-04-26 04:58 -34.28065 150.73114 28233 ft 427 kts 169°
2026-04-26 04:58 -34.33925 150.74375 28389 ft 431 kts 169°
2026-04-26 04:59 -34.36887 150.75014 29307 ft 432 kts 169°
2026-04-26 04:59 -34.39871 150.75657 30192 ft 437 kts 169°
2026-04-26 04:59 -34.42878 150.76306 30894 ft 442 kts 170°
2026-04-26 04:59 -34.45917 150.76962 31633 ft 446 kts 170°
2026-04-26 05:00 -34.48979 150.77387 32317 ft 451 kts 179°
2026-04-26 05:00 -34.52118 150.77044 33053 ft 454 kts 191°
2026-04-26 05:00 -34.55127 150.75904 33901 ft 454 kts 203°
2026-04-26 05:00 -34.57873 150.74042 34737 ft 453 kts 214°
2026-04-26 05:01 -34.60250 150.71541 35524 ft 452 kts 225°
2026-04-26 05:01 -34.62193 150.68540 36290 ft 451 kts 232°
2026-04-26 05:01 -34.64033 150.65452 37006 ft 450 kts 232°
2026-04-26 05:01 -34.65875 150.62385 37732 ft 448 kts 232°
2026-04-26 05:02 -34.67690 150.59367 38140 ft 447 kts 232°
2026-04-26 05:02 -34.69524 150.56318 38227 ft 450 kts 232°
2026-04-26 05:02 -34.71399 150.53202 38222 ft 462 kts 232°
2026-04-26 05:02 -34.73309 150.50022 38217 ft 471 kts 232°
2026-04-26 05:03 -34.77182 150.43555 38222 ft 472 kts 232°
2026-04-26 05:03 -34.81046 150.37089 38211 ft 472 kts 232°
2026-04-26 05:04 -34.84904 150.30624 38216 ft 472 kts 232°
2026-04-26 05:04 -34.88768 150.24141 38213 ft 472 kts 232°
2026-04-26 05:05 -34.92548 150.17779 38212 ft 453 kts 232°
2026-04-26 05:05 -34.94367 150.14712 38207 ft 442 kts 232°
2026-04-26 05:05 -34.96159 150.11691 38209 ft 440 kts 232°
2026-04-26 05:06 -34.99780 150.05596 38090 ft 452 kts 234°
2026-04-26 05:06 -35.03519 149.99272 38002 ft 464 kts 234°
2026-04-26 05:07 -35.07317 149.92838 37996 ft 476 kts 235°
2026-04-26 05:07 -35.09282 149.89505 38007 ft 490 kts 236°
2026-04-26 05:07 -35.11297 149.86078 38004 ft 506 kts 236°
2026-04-26 05:08 -35.13381 149.82532 38001 ft 520 kts 236°
2026-04-26 05:08 -35.15508 149.78912 37999 ft 525 kts 236°
2026-04-26 05:08 -35.17656 149.75260 38007 ft 536 kts 237°
2026-04-26 05:08 -35.19856 149.71509 38003 ft 548 kts 237°
2026-04-26 05:09 -35.24318 149.63894 37996 ft 557 kts 238°
2026-04-26 05:09 -35.26601 149.59979 38009 ft 573 kts 235°
2026-04-26 05:09 -35.28812 149.56265 37943 ft 504 kts 236°
2026-04-26 05:10 -35.30868 149.52970 37062 ft 510 kts 233°
2026-04-26 05:10 -35.33118 149.49391 36534 ft 542 kts 233°
2026-04-26 05:10 -35.35319 149.45621 37117 ft 542 kts 237°
2026-04-26 05:10 -35.37423 149.41837 37683 ft 544 kts 237°
2026-04-26 05:11 -35.39578 149.37924 37752 ft 559 kts 237°
2026-04-26 05:11 -35.41815 149.33933 37752 ft 576 kts 236°
2026-04-26 05:11 -35.44141 149.29854 37750 ft 592 kts 236°
2026-04-26 05:11 -35.46549 149.25675 37751 ft 608 kts 235°
2026-04-26 05:12 -35.49028 149.21388 37751 ft 622 kts 235°
2026-04-26 05:12 -35.51556 149.17017 37750 ft 632 kts 235°
2026-04-26 05:12 -35.56678 149.08142 37746 ft 636 kts 235°
2026-04-26 05:13 -35.59201 149.03761 37742 ft 620 kts 236°
2026-04-26 05:13 -35.61665 148.99477 37750 ft 609 kts 236°
2026-04-26 05:13 -35.66568 148.90926 37752 ft 615 kts 236°
2026-04-26 05:14 -35.71520 148.82271 37754 ft 620 kts 236°
2026-04-26 05:14 -35.76477 148.73588 37748 ft 619 kts 236°
2026-04-26 05:15 -35.81411 148.64922 37748 ft 618 kts 236°
2026-04-26 05:15 -35.86360 148.56208 37753 ft 620 kts 236°
2026-04-26 05:16 -35.91266 148.47539 37767 ft 621 kts 236°
2026-04-26 05:16 -35.96191 148.38780 37760 ft 621 kts 236°
2026-04-26 05:17 -36.01114 148.30008 37782 ft 622 kts 236°
2026-04-26 05:17 -36.03598 148.25575 37751 ft 633 kts 236°
2026-04-26 05:17 -36.06125 148.21057 37752 ft 643 kts 236°